CW4797 Weather Reports


time (UTC)temp
C
wind
direction
speed
KPH
gust
KPH
rain 1hr
cm
rain 24hr
cm
rain mn
cm
humidity
%
barometer
mb
20210122053101 -5 248 0.0 0.0 0.00 0.00 0.00 87 1002.3
20210122051559 -5 248 0.0 0.0 0.00 0.00 0.00 87 1002.4
20210122050044 -5 248 0.0 0.0 0.00 0.00 0.00 86 1002.4
20210122044538 -5 248 0.0 1.6 0.00 0.00 0.00 86 1002.6
20210122043035 -5 248 0.0 3.2 0.00 0.00 0.00 85 1002.8
20210122041532 -5 248 0.0 0.0 0.00 0.00 0.00 85 1002.9
20210122040026 -5 248 0.0 0.0 0.00 0.00 0.00 84 1003.0
20210122034538 -5 248 0.0 0.0 0.00 0.00 0.00 81 1003.0
20210122033020 -5 248 0.0 0.0 0.00 0.00 0.00 81 1003.0
20210122031521 -5 248 0.0 0.0 0.00 0.00 0.00 80 1003.2
20210122030055 -4 248 0.0 0.0 0.00 0.00 0.00 81 1003.2
20210122024516 -4 248 0.0 0.0 0.00 0.00 0.00 82 1003.3
20210122023023 -4 248 0.0 0.0 0.00 0.00 0.00 81 1003.4
20210122021549 -4 248 0.0 0.0 0.00 0.00 0.00 81 1003.4
20210122020023 -4 248 0.0 0.0 0.00 0.00 0.00 80 1003.6
20210122014548 -4 248 0.0 0.0 0.00 0.00 0.00 80 1003.6
20210122013023 -4 248 0.0 0.0 0.00 0.00 0.00 78 1003.8
20210122011705 -4 248 0.0 0.0 0.00 0.00 0.00 78 1004.0
20210122010204 -4 248 0.0 0.0 0.00 0.00 0.00 78 1004.1
20210122004626 -4 248 0.0 0.0 0.00 0.00 0.00 78 1004.1
20210122003217 -4 248 0.0 3.2 0.00 0.00 0.00 78 1004.1
20210122001925 -4 248 0.0 3.2 0.00 0.00 0.00 77 1004.1
20210122000235 -4 248 1.6 3.2 0.00 0.00 0.00 77 1004.0
20210121234714 -4 248 0.0 3.2 0.00 0.00 0.00 76 1004.1
20210121233152 -4 248 0.0 3.2 0.00 0.00 0.00 76 1004.2
20210121231623 -4 248 0.0 1.6 0.00 0.00 0.00 76 1004.2
20210121230225 -4 248 0.0 1.6 0.00 0.00 0.00 75 1004.3
20210121224653 -4 248 0.0 1.6 0.00 0.00 0.00 75 1004.3
20210121223147 -4 248 0.0 3.2 0.00 0.00 0.00 74 1004.3
20210121221657 -4 248 0.0 3.2 0.00 0.00 0.00 74 1004.1
20210121220138 -4 248 1.6 3.2 0.00 0.00 0.00 73 1004.0
20210121214644 -4 248 0.0 3.2 0.00 0.00 0.00 73 1004.0
20210121213124 -4 248 0.0 3.2 0.00 0.00 0.00 72 1004.1
20210121211712 -4 232 0.0 3.2 0.00 0.00 0.00 72 1004.2
20210121210215 -4 284 1.6 6.4 0.00 0.00 0.00 71 1004.3
20210121204613 -3 239 1.6 8.0 0.00 0.00 0.00 70 1004.4
20210121203102 -3 254 1.6 6.4 0.00 0.00 0.00 70 1004.4
20210121201719 -3 254 1.6 9.7 0.00 0.00 0.00 68 1004.5
20210121200044 -3 234 1.6 9.7 0.00 0.00 0.00 67 1004.7
20210121194610 -3 266 3.2 11.3 0.00 0.00 0.00 66 1004.7
20210121193244 -3 337 3.2 8.0 0.00 0.00 0.00 64 1004.8
20210121191556 -3 272 1.6 8.0 0.00 0.00 0.00 62 1005.1
20210121190110 -3 244 1.6 9.7 0.00 0.00 0.00 61 1005.2
20210121184633 -4 235 4.8 6.4 0.00 0.00 0.00 60 1005.3
20210121183059 -4 242 3.2 9.7 0.00 0.00 0.00 59 1005.5
20210121181532 -4 242 3.2 8.0 0.00 0.00 0.00 58 1005.7
20210121180117 -4 236 1.6 6.4 0.00 0.00 0.00 58 1005.8
20210121174544 -4 229 1.6 6.4 0.00 0.00 0.00 58 1006.1
20210121173100 -4 225 1.6 11.3 0.00 0.00 0.00 56 1006.7
20210121171615 -4 274 1.6 8.0 0.00 0.00 0.00 56 1007.0
20210121170028 -5 289 3.2 12.9 0.00 0.00 0.00 56 1007.4
20210121164520 -5 334 1.6 12.9 0.00 0.00 0.00 57 1007.8
20210121163021 -5 201 3.2 9.7 0.00 0.00 0.00 59 1008.0
20210121161521 -6 217 3.2 8.0 0.00 0.00 0.00 63 1008.1
20210121160148 -6 250 3.2 12.9 0.00 0.00 0.00 63 1008.3
20210121154718 -6 204 6.4 14.5 0.00 0.00 0.00 64 1008.8
20210121153118 -6 244 1.6 8.0 0.00 0.00 0.00 65 1009.3
20210121151617 -7 246 1.6 6.4 0.00 0.00 0.00 66 1009.2
20210121150142 -7 257 1.6 8.0 0.00 0.00 0.00 70 1009.2
20210121144610 -7 260 1.6 6.4 0.00 0.00 0.00 69 1009.3
20210121143118 -8 244 4.8 9.7 0.00 0.00 0.00 69 1009.7
20210121141557 -8 249 1.6 4.8 0.00 0.00 0.00 70 1009.9
20210121140044 -8 240 0.0 4.8 0.00 0.00 0.00 72 1010.1
20210121134537 -8 223 1.6 4.8 0.00 0.00 0.00 74 1009.9
20210121133023 -9 286 0.0 3.2 0.00 0.00 0.00 75 1010.5
20210121131533 -9 280 0.0 1.6 0.00 0.00 0.00 74 1010.6
20210121130104 -10 280 0.0 0.0 0.00 0.00 0.00 74 1010.3
20210121124525 -10 280 0.0 1.6 0.00 0.00 0.00 75 1010.6
20210121123023 -10 280 0.0 3.2 0.00 0.00 0.00 76 1011.0
20210121121526 -10 280 0.0 3.2 0.00 0.00 0.00 75 1011.2
20210121120026 -10 280 0.0 1.6 0.00 0.00 0.00 75 1011.0
20210121114526 -10 280 0.0 3.2 0.00 0.00 0.00 77 1011.4
20210121113022 -10 280 0.0 1.6 0.00 0.00 0.00 75 1011.7
20210121111529 -10 280 0.0 1.6 0.00 0.00 0.00 74 1011.3
20210121110019 -10 280 0.0 1.6 0.00 0.00 0.00 74 1011.4
20210121104516 -10 280 0.0 1.6 0.00 0.00 0.00 73 1011.7
20210121103015 -10 280 0.0 1.6 0.00 0.00 0.00 72 1011.7
20210121101510 -10 280 0.0 3.2 0.00 0.00 0.00 73 1012.0
20210121100122 -10 280 0.0 3.2 0.00 0.00 0.00 73 1012.1
20210121094730 -10 280 1.6 3.2 0.00 0.00 0.00 73 1012.2
20210121093251 -10 287 1.6 3.2 0.00 0.00 0.00 74 1012.5
20210121091710 -10 216 0.0 3.2 0.00 0.00 0.00 74 1012.5
20210121090116 -10 216 0.0 3.2 0.00 0.00 0.00 74 1012.7
20210121084709 -10 216 0.0 3.2 0.00 0.00 0.00 73 1012.7
20210121083250 -10 216 0.0 1.6 0.00 0.00 0.00 73 1013.1
20210121081642 -10 216 0.0 3.2 0.00 0.00 0.00 73 1013.4
20210121080135 -10 216 0.0 3.2 0.00 0.00 0.00 73 1013.6
20210121074614 -10 216 0.0 3.2 0.00 0.00 0.00 72 1013.7
20210121073212 -10 67 0.0 3.2 0.00 0.00 0.00 73 1014.0
20210121071654 -10 67 0.0 1.6 0.00 0.00 0.00 74 1013.9
20210121070059 -10 67 0.0 1.6 0.00 0.00 0.00 73 1013.6
20210121064621 -9 69 1.6 3.2 0.00 0.00 0.00 74 1013.9
20210121063120 -9 68 0.0 1.6 0.00 0.00 0.00 74 1013.7
20210121061611 -9 67 0.0 3.2 0.00 0.00 0.00 72 1013.7
20210121060053 -8 67 0.0 0.0 0.00 0.00 0.00 68 1013.8
20210121054549 -8 67 0.0 1.6 0.00 0.00 0.00 68 1013.7